User: anonymous   Login
Location: Peebles
(55.6412°N, 3.1714°W)
Time: 12:28:11
(UTC+00:00)
Language:

USA 238 - Orbit

View from above orbital plane
View from above orbital plane
View from above satellite
View from above satellite

Ground track
Ground track

The orbit data is extracted from the following two-line orbital elements,

1 38758U 12048A   21329.21890063 0.00000000  00000-0  00000-0 0    05
2 38758  63.4227 132.7605 0171772 359.9642   0.0358 13.40826768    05
Epoch (UTC): 25 November 2021 05:15:13
Eccentricity: 0.0171772
inclination: 63.4227°
perigee height: 977 km
apogee height: 1235 km
right ascension of ascending node: 132.7605°
argument of perigee: 359.9642°
revolutions per day: 13.40826768
mean anomaly at epoch: 0.0358°
orbit number at epoch: 0

The dashed part of the orbit path shows where the satellite is in the earth's shadow,  

DLR